User: anonymous   Login
Location: Ahausen
(50.4985°N, 8.2722°E)
Time: 11:56:44
(UTC+00:00)
Language:

TIGRISAT - Orbit

View from above orbital plane
View from above orbital plane
View from above satellite
View from above satellite

Ground track
Ground track

The orbit data is extracted from the following two-line orbital elements,

1 40043U 14033AK  22179.01407024  .00000698  00000-0  10778-3 0  9990
2 40043  97.6561   7.7042 0060522 121.5623 239.1516 14.75029343431487
Epoch (UTC): 28 June 2022 00:20:15
Eccentricity: 0.0060522
inclination: 97.6561°
perigee height: 602 km
apogee height: 687 km
right ascension of ascending node: 7.7042°
argument of perigee: 121.5623°
revolutions per day: 14.75029343
mean anomaly at epoch: 239.1516°
orbit number at epoch: 43148

The dashed part of the orbit path shows where the satellite is in the earth's shadow,  

DLR